Location: Mahannah Oil Field
(37.4664°N, 96.6003°W)
Time: 00:09:55
(UTC+00:00)

deb Explorer IX - Pass Details

Date: 26 January 2021
Orbit: 538 x 1101 km, 38.8° (Epoch: 06 March)

Event Time Altitude Azimuth Distance (km) Brightness Sun altitude
Rises 00:26:32 0° 258° (WSW) 3,764 ? -8.9°
Reaches altitude 10° 00:29:22 10° 258° (WSW) 2,745 ? -9.4°
Maximum altitude 00:36:00 88° 346° (NNW) 892 ? -10.7°
Enters shadow 00:40:45 15° 79° (E) 2,028 ? -11.6°
